This is the latest recevied weather packets stored in our database for station/object AD0YN. If no packets are shown the sender has not sent any weather packets the latest 10 day(s).
| Time | Temp. | Humidity | Pressure | Rain* | Wind** | Luminosity | Snow |
|---|---|---|---|---|---|---|---|
| 1777755737 | 16.67° C | 31% | 1018.8 hPa | 0 mm | - | 690 W/m² | - |
| 1777755434 | 17.22° C | 31% | 1018.7 hPa | 0 mm | - | 705 W/m² | - |
| 1777755130 | 17.78° C | 30% | 1018.7 hPa | 0 mm | - | 710 W/m² | - |
| 1777754828 | 17.22° C | 34% | 1018.9 hPa | 0 mm | - | 725 W/m² | - |
| 1777754526 | 16.67° C | 37% | 1018.9 hPa | 0 mm | - | 740 W/m² | - |
| 1777754223 | 16.67° C | 33% | 1018.9 hPa | 0 mm | - | 755 W/m² | - |
| 1777753921 | 16.67° C | 30% | 1019.3 hPa | 0 mm | - | 770 W/m² | - |
| 1777753614 | 16.67° C | 30% | 1019.2 hPa | 0 mm | - | 782 W/m² | - |
| 1777753313 | 16.67° C | 34% | 1019.5 hPa | 0 mm | - | 793 W/m² | - |
| 1777753009 | 16.67° C | 31% | 1019.4 hPa | 0 mm | - | 802 W/m² | - |
| 1777752706 | 17.78° C | 36% | 1019.4 hPa | 0 mm | - | 812 W/m² | - |
| 1777752401 | 17.22° C | 31% | 1019.4 hPa | 0 mm | - | 818 W/m² | - |
| 1777752098 | 17.22° C | 30% | 1019.5 hPa | 0 mm | - | 836 W/m² | - |
| 1777751797 | 16.67° C | 31% | 1019.6 hPa | 0 mm | - | 842 W/m² | - |
| 1777751493 | 17.22° C | 30% | 1019.6 hPa | 0 mm | - | 851 W/m² | - |
| 1777751190 | 16.67° C | 34% | 1019.8 hPa | 0 mm | - | 842 W/m² | - |
| 1777750886 | 16.67° C | 29% | 1019.5 hPa | 0 mm | - | 866 W/m² | - |
| 1777750583 | 16.11° C | 30% | 1019.7 hPa | 0 mm | - | 871 W/m² | - |
| 1777750280 | 16.67° C | 30% | 1019.7 hPa | 0 mm | - | 881 W/m² | - |
| 1777749975 | 16.67° C | 30% | 1019.7 hPa | 0 mm | - | 889 W/m² | - |
| 1777749673 | 16.67° C | 28% | 1019.9 hPa | 0 mm | - | 896 W/m² | - |
| 1777749370 | 16.67° C | 32% | 1019.8 hPa | 0 mm | - | 902 W/m² | - |
| 1777749067 | 16.11° C | 30% | 1019.9 hPa | 0 mm | - | 901 W/m² | - |
| 1777748765 | 16.67° C | 30% | 1020 hPa | 0 mm | - | 908 W/m² | - |
| 1777748462 | 16.11° C | 34% | 1020 hPa | 0 mm | - | 911 W/m² | - |
* Rain latest hour (hover to see other rain measurements)
** Current wind speed in m/s (hover to see current wind gust speed)